Location: Poughquag
(41.6090°N, 73.6820°W)
Time: 10:55:44
(UTC-04:00)

ITUPSAT 1 - Visible Passes

Search period start: 25 April 2025 00:00
Search period end: 05 May 2025 00:00
Orbit: 688 x 701 km, 98.4° (Epoch: 24 April)

Date Brightness Start Highest point End Pass type
(mag) Time Alt. Az. Time Alt. Az. Time Alt. Az.
25 Apr ? 00:35:44 10° N 00:38:04 24° NNW 00:38:04 24° NNW visible
25 Apr ? 23:38:10 10° NNE 23:40:20 27° NNE 23:40:20 27° NNE visible
26 Apr ? 01:17:35 10° NNW 01:19:04 13° NW 01:19:04 13° NW visible
26 Apr ? 22:42:09 10° NE 22:42:35 12° NE 22:42:35 12° NE visible
27 Apr ? 00:18:43 10° N 00:21:19 30° NNW 00:21:19 30° NNW visible
27 Apr ? 23:21:33 10° NNE 23:23:34 24° NE 23:23:34 24° NE visible
28 Apr ? 01:00:00 10° NNW 01:02:18 18° NW 01:02:18 18° NW visible
29 Apr ? 00:01:49 10° N 00:04:32 34° N 00:04:32 34° N visible
29 Apr ? 23:05:02 10° NE 23:06:47 20° NE 23:06:47 20° NE visible
30 Apr ? 00:42:44 10° N 00:45:30 24° NW 00:45:30 24° NW visible
30 Apr ? 23:45:02 10° NNE 23:47:44 35° NNE 23:47:44 35° NNE visible
01 May ? 01:24:57 10° NW 01:26:28 12° WNW 01:26:28 12° WNW visible
01 May ? 22:48:44 10° NE 22:49:58 15° NE 22:49:58 15° NE visible
02 May ? 00:25:39 10° N 00:28:42 32° NNW 00:28:42 32° NNW visible
02 May ? 23:28:19 10° NNE 23:30:56 31° NE 23:30:56 31° NE visible
03 May ? 01:07:04 10° NNW 01:09:39 17° WNW 01:09:39 17° WNW visible
03 May ? 22:32:48 10° ENE 22:33:09 11° ENE 22:33:09 11° ENE visible
04 May ? 00:08:41 10° N 00:11:53 40° NNW 00:11:53 40° NNW visible
04 May ? 23:11:44 10° NNE 23:14:06 25° NE 23:14:06 25° NE visible
